Location: Lafig�re
(44.4503°N, 4.0357°E)
Time: 14:33:16
(UTC+00:00)

Vanguard 2 Rocket - Pass Details

Date: 27 January 2021
Orbit: 554 x 3325 km, 32.9° (Epoch: 06 March)

Event Time Altitude Azimuth Distance (km) Brightness Sun altitude
Rises 10:19:33 0° 187° (S) 7,300 12.4 23.4°
Reaches altitude 10° 10:28:33 10° 167° (SSE) 6,160 13.0 24.1°
Maximum altitude 10:36:30 14° 142° (SE) 5,484 12.6 24.6°
Drops below altitude 10° 10:43:32 10° 116° (ESE) 5,387 11.6 25.0°
Sets 10:50:05 0° 95° (E) 5,842 11.3 25.4°
